sat.trackr.live / text

‹ back to catalog

BLUEBON

NORAD 62688 · 2025-009CH

PAYLOAD ACTIVE UNKNOWN

§ Identity

Operator
Country
POL
Launch date
2025-01-14
Launch site
AFWTR
Launch vehicle
Mass (kg)
RCS (m²)

External: N2YO · Heavens-Above · Gunter

§ Orbital elements

Epoch: 2026-09-22T17:41:57.369984Z

Period
93.99 min
Inclination
97.3939°
Eccentricity
0.0001725
Mean motion
15.32043772 rev/d
Perigee alt
468.5 km
Apogee alt
470.9 km
Semi-major
6,847.9 km
B*
1.8416e-4
RAAN
348.5999°
Arg perigee
44.6403°
Mean anomaly
315.4978°
Rev number
9,390

§ Raw data

BLUEBON1 62688U 25009CH  26265.73746956  .00005619  00000+0  18416-3 0  99972 62688  97.3939 348.5999 0001725  44.6403 315.4978 15.32043772 93907

JSON: /api/v1/satellites/62688 · /tle

For live sub-satellite position, see the globe view (requires WebGL).

§ Visibility from observer

Set your observer location to see the next 7 days of passes ≥ 10°. The values pass through the URL so the page stays shareable.

No JS? Fill the form by hand. The geolocation button needs JavaScript.

§ Radio — SatNOGS DB

ModeDescriptionDownlinkUplink
FM Mode U - Transmitter 400.650 MHz
FM Telemetry 400.950 MHz

2 transmitters · refreshed weekly from db.satnogs.org